VERTECS

导读

VERTECS(NORAD编号69506)是日本九州工业大学主导研发的6U立方体卫星,于2026年6月由日本H3-30火箭第6次飞行任务搭载发射,进入近地轨道。 该卫星核心任务为观测银河系外的背景辐射,通过探测宇宙深空的弥散辐射信号,助力科研人员回溯早期宇宙的演化历史、研究星系形成的物理过程。 作为此次H3火箭发射的6颗搭载小卫星之一,VERTECS属于空间天文实验载荷,是日本高校主导的低成本深空探测技术验证项目的重要组成部分,目前已完成轨道部署进入在轨测试阶段。

Basic Information
目录编号:
69506
目录名称:
VERTECS
国际标识:
2026-132E
轨道中心:
EARTH
卫星名称:
VERTECS
卫星全名:
VERTECS
卫星状态:
在轨 (已飞行84 天)
发射日期:
2026-06-12 UTC
国别 :
日本 (JP)
星等 :
--
Orbit Information
数据来源 国际轨道数据
星历时间: 2026-09-04T11:27:20+0800
6小时前
查看轨道信息
半长轴: 6941.402km
偏心率: 0.0014908
轨道倾角: 97.662°
近地点辐角 52.924°
升交点赤经 309.896°
平近点角 307.334°
近地点: 552.916km
远地点: 573.614km
周期: 95.925分钟
每日圈数: 15.011773
Detailed Information
使用方式:
暂无
2D Orbit Map
3D Orbit Map
Orbit Altitude Analysis Chart
Orbit Inclination Analysis Chart
Orbit Comprehensive Analysis Chart
View Comprehensive Chart
Conjunction Data List
Event ID Objects TCA Miss Dist (km) Collision Risk Probability Collision Risk Index (CRI) Action
CDM_260905-030806-480206-950621
VERTECS (69506)
2026-09-05T
03:08:20+0000
1.639 km
极远距离
4.153934E-6 低风险 0.47
CDM_260829-124605-565706-950622
VERTECS (69506)
2026-08-29T
12:46:49+0000
2.241 km
极远距离
2.141755E-6 低风险 0.42
CDM_260904-123404-915406-950623
VERTECS (69506)
2026-09-04T
12:34:04+0000
2.267 km
极远距离
2.009305E-6 低风险 0.41
CDM_260905-150603-411806-950621
VERTECS (69506)
2026-09-05T
15:06:40+0000
2.494 km
极远距离
1.612135E-6 低风险 0.39